Location: Unspecified
(0.0000°N, 0.0000°E)
Time: 14:06:06
(UTC+00:00)

Transit 2A - All Passes

Search period start: 01 August 2021 00:00
Search period end: 11 August 2021 00:00
Orbit: 598 x 960 km, 66.7° (Epoch: 31 July)

Date Brightness Start Highest point End Pass type
(mag) Time Alt. Az. Time Alt. Az. Time Alt. Az.
01 Aug - 05:02:28 10° SW 05:06:39 42° WNW 05:10:44 10° N visible
01 Aug - 15:52:04 10° N 15:57:39 36° ENE 16:03:23 10° SE daylight
01 Aug - 17:36:08 10° WNW 17:40:40 21° WSW 17:45:18 10° SSW daylight
02 Aug - 04:28:05 10° SSW 04:32:31 83° WNW 04:36:49 10° NNE visible
02 Aug - 15:18:46 10° NNE 15:23:30 23° ENE 15:28:20 10° ESE daylight
02 Aug - 17:00:59 10° NW 17:06:29 33° WSW 17:12:07 10° S daylight
03 Aug - 03:54:04 10° S 03:58:23 50° ESE 04:02:33 10° NE visible
03 Aug - 14:46:16 10° NE 14:49:20 14° ENE 14:52:27 10° E daylight
03 Aug - 16:26:17 10° NW 16:32:18 53° WSW 16:38:29 10° S daylight
04 Aug - 03:20:28 10° S 03:24:14 27° ESE 03:27:52 10° NE visible
04 Aug - 05:05:50 10° W 05:07:02 11° WNW 05:08:14 10° NW visible
04 Aug - 15:51:57 10° NNW 15:58:08 83° WSW 16:04:31 10° SSE daylight
05 Aug - 02:47:31 10° SSE 02:50:02 15° ESE 02:52:30 10° ENE visible
05 Aug - 04:29:38 10° WSW 04:32:53 20° WNW 04:36:06 10° NNW visible
05 Aug - 15:17:53 10° N 15:23:59 63° ENE 15:30:17 10° SSE daylight
05 Aug - 17:05:10 10° W 17:07:06 11° WSW 17:09:03 10° SW daylight
06 Aug - 03:54:41 10° SW 03:58:45 37° WNW 04:02:45 10° N visible
06 Aug - 14:44:06 10° N 14:49:51 40° ENE 14:55:43 10° SE daylight
06 Aug - 16:28:35 10° WNW 16:32:53 19° WSW 16:37:14 10° SSW daylight
07 Aug - 03:20:14 10° SSW 03:24:38 73° WNW 03:28:54 10° NNE visible
07 Aug - 14:10:44 10° NNE 14:15:42 25° ENE 14:20:46 10° SE daylight
07 Aug - 15:53:19 10° NW 15:58:42 30° WSW 16:04:10 10° S daylight
08 Aug - 02:46:09 10° S 02:50:29 57° ESE 02:54:43 10° NNE night (unlit)
08 Aug - 13:38:00 10° NE 13:41:32 16° ENE 13:45:08 10° ESE daylight
08 Aug - 15:18:33 10° NW 15:24:31 48° WSW 15:30:36 10° S daylight
09 Aug - 02:12:27 10° S 02:16:20 30° ESE 02:20:06 10° NE night (unlit)
09 Aug - 14:44:08 10° NNW 14:50:21 76° WSW 14:56:42 10° SSE daylight
10 Aug - 01:39:21 10° SSE 01:42:09 17° ESE 01:44:55 10° ENE night (unlit)
10 Aug - 03:22:00 10° WSW 03:25:00 18° WNW 03:27:58 10° NNW night (unlit)
10 Aug - 14:10:01 10° NNW 14:16:12 70° ENE 14:22:31 10° SSE daylight
10 Aug - 15:58:45 10° WSW 15:59:19 10° WSW 15:59:53 10° WSW daylight
